Regional Weather Roundup
Issued by NWS Newport/Morehead, NC

Current Version | Previous Version | Graphics & Text | Print | Product List | Glossary On
Versions: 1 2 3 4 5 6 7 8 9 10 11 12 13 14 15 16 17 18 19 20 21 22 23 24 25 26 27 28 29 30 31 32 33 34 35 36 37 38 39 40 41 42 43 44 45 46 47 48 49 50
000 ASUS42 KMHX 060413 RWRMHX WEATHER ROUNDUP FOR EASTERN NORTH CAROLINA NATIONAL WEATHER SERVICE NEWPORT/MOREHEAD CITY NC 1200 AM EDT FRI MAY 06 2016 NOTE: "FAIR" INDICATES FEW OR NO CLOUDS BELOW 12,000 FEET WITH NO SIGNIFICANT WEATHER AND/OR OBSTRUCTIONS TO VISIBILITY NCZ015>017-031-032-045>047-102-103-060500- NORTH COAST CITY SKY/WX TMP DP RH WIND PRES REMARKS EDENTON CLOUDY 53 53 100 CALM 29.66R ELIZABETH CITY LGT RAIN 51 49 92 NE20G29 29.61S KITTY HAWK CLOUDY 50 49 97 N6G16 29.60F MANTEO CLOUDY 50 50 99 NE16 29.61F $$ NCZ045>047-081-094-103-104-060500- CENTRAL COAST CITY SKY/WX TMP DP RH WIND PRES REMARKS FRISCO CLOUDY 53 50 89 VRB5 29.63S SWANQUARTER NOT AVBL $$ NCZ095-097-098-100-101-060500- SOUTHERN COAST CITY SKY/WX TMP DP RH WIND PRES REMARKS BEAUFORT LGT RAIN 55 52 89 N5 29.66R CEDAR ISLAND NOT AVBL JACKSONVILLE CLOUDY 54 51 90 W8 29.66R PINEY ISLAND NOT AVBL WILMINGTON CLEAR 52 47 83 NW10 29.70R $$ NCZ011>013-027>030-043-044-078>080-089-090>093-098-060500- COASTAL PLAIN CITY SKY/WX TMP DP RH WIND PRES REMARKS AHOSKIE LGT RAIN 51 50 96 CALM 29.65S CLINTON CLOUDY 52 48 87 NW5 29.69R ELIZABETHTOWN MOCLDY 53 45 75 NW7 29.70S GOLDSBORO NOT AVBL GREENVILLE RAIN 52 52 100 E3 29.68S HAVELOCK CLOUDY 55 52 89 CALM 29.67R KENANSVILLE CLOUDY 52 48 87 CALM 29.68S KINSTON LGT RAIN 54 53 97 W7 29.66R NEW BERN LGT RAIN 54 52 93 S3 29.67R RICHLANDS CLOUDY 53 51 93 SW5 29.68R ROCKY MOUNT LGT RAIN 52 51 97 N8 29.65S FOG WASHINGTON CLOUDY 52 50 92 E3 29.65R WHITEVILLE NOT AVBL $$ AMZ130-135-150-152-154-156-158-170-250-252-270-ANZ085-086-088-633-658-670-060500- MARINE OBSERVATIONS STATION/POSITION TIME TEMP WIND PRES WAVE SWELL AIR SEA DIR/SP/G HT/PER HT/PER (UTC) (F) (DEG/KT/KT) (MB) (FT/S) (FT/S) CHESAPEAKE LIGHT 0300 50 30/ 25/ 27 1002.9 64 E VA BEACH 0350 49 51 360/ 21/ 27 1000.6 8/ 8 5/ 8 DUCK 0300 51 61 1002.4 2 E DUCK 0311 59 N/A 6/ 8 OREGON INLET 0300 51 61 1002.2 13E OREGON INLT 0400 56 N/A 7/ 8 5/ 8 HATTERAS CG 0300 55 67 1002.4 DIAMOND BUOY 0350 55 76 10/ 12/ 16 1003.4 5/ 8 3/ 8 CAPE LOOKOUT 0400 56 350/ 7/ 8 1004.1 BEAUFORT LAB 0300 56 67 1002.9 30 SE NEW RVR IN 0325 73 N/A 4/ 7 27 SE WRIGHTSVLE 0308 62 72 300/ 16/ 21 1004.4 5 SE WRIGHTSVLE 0308 59 69 310/ 16/ 19 1005.1 225 S CAPE HAT 0350 71 74 250/ 19/ 23 1005.3 10/ 8 3/15 41 SE CHARLESTON 0350 64 73 300/ 17/ 21 1006.2 6/ 7 $$

USA.gov is the U.S. government's official web portal to all federal, state and local government web resources and services.